Clarksburg, WV

2:22 AM EST on November 19, 2019 (GMT -0500)
Benedum

Weather History for KCKB - May, 2019

Change the Weather History Date:

Wednesday, May 29, 2019

  Actual Average Record
Temperature  
Mean Temperature 76 °F -  
Max Temperature 84 °F 77 °F 93 °F (1931)
Min Temperature 67 °F 51 °F 34 °F (1964)
Cooling Degree Days 11    
Month to date cooling degree days 144  
Year to date cooling degree days 169  
Growing Degree Days 26 (Base 50)    
Moisture  
Dew Point 65 °F    
Average Humidity 68    
Maximum Humidity 81    
Minimum Humidity 54    
Precipitation  
Precipitation T in - - ()
Month to date precipitation 3.62  
Year to date precipitation 17.75  
Sea Level Pressure  
Sea Level Pressure 29.77 in    
Wind  
Wind Speed 10 mph (SW)    
Max Wind Speed 25 mph    
Max Gust Speed 33 mph    
Visibility 10 miles    
Events Rain , Thunderstorm    
Averages and records for this station are not official NWS values.
T = Trace of Precipitation, MM = Missing Value Source: NWS Daily Summary

Daily Weather History Graph

Daily Weather History Graph

Search for Another Location

Airport or City:

Astronomy

May. 29, 2019 Rise Set
Actual Time 5:57 AM EDT 8:39 PM EDT
Civil Twilight 5:26 AM EDT 9:10 PM EDT
Nautical Twilight 4:47 AM EDT 9:50 PM EDT
Astronomical Twilight 4:02 AM EDT 10:34 PM EDT
Moon 3:33 AM EDT (5/29) 3:48 PM EDT (5/29)
Length of Visible Light 15h 44m
Length of Day
14h 41m
Waning Crescent, 23% of the Moon is Illuminated
May 29
Waning Crescent
Jun 3
New
Jun 10
First Quarter
Jun 17
Full
Jun 25
Last Quarter

Hourly Weather History & Observations

Time (EDT) Temp. Heat Index Dew Point Humidity Pressure Visibility Wind Dir Wind Speed Gust Speed Precip Events Conditions
12:53 AM 73.9 °F - 64.0 °F 71% 29.75 in 10.0 mi Calm Calm - N/A   Clear
1:53 AM 73.0 °F - 64.0 °F 73% 29.78 in 10.0 mi Calm Calm - N/A   Clear
2:53 AM 71.1 °F - 64.0 °F 78% 29.78 in 10.0 mi South 4.6 mph - N/A   Clear
3:53 AM 71.1 °F - 63.0 °F 75% 29.77 in 10.0 mi South 3.5 mph - N/A   Clear
4:53 AM 71.1 °F - 63.0 °F 75% 29.77 in 10.0 mi South 3.5 mph - N/A   Mostly Cloudy
5:53 AM 71.1 °F - 63.0 °F 75% 29.77 in 10.0 mi South 4.6 mph - N/A   Clear
6:53 AM 72.0 °F - 64.0 °F 76% 29.78 in 10.0 mi South 4.6 mph - N/A   Clear
7:53 AM 75.0 °F - 64.9 °F 71% 29.79 in 10.0 mi SSW 4.6 mph - N/A   Partly Cloudy
8:53 AM 77.0 °F - 66.0 °F 69% 29.78 in 10.0 mi SSW 9.2 mph - N/A   Mostly Cloudy
9:53 AM 80.1 °F 82.1 °F 66.0 °F 62% 29.77 in 10.0 mi SW 11.5 mph - N/A   Clear
10:34 AM 80.1 °F 82.3 °F 66.9 °F 64% 29.82 in 10.0 mi WSW 13.8 mph 24.2 mph N/A   Mostly Cloudy
10:53 AM 81.0 °F 83.3 °F 66.9 °F 62% 29.77 in 10.0 mi WSW 12.7 mph 24.2 mph N/A   Mostly Cloudy
11:44 AM 82.9 °F 86.5 °F 69.1 °F 63% 29.80 in 10.0 mi SW 9.2 mph 20.7 mph N/A   Scattered Clouds
11:53 AM 82.0 °F 85.5 °F 69.1 °F 65% 29.75 in 10.0 mi SW 10.4 mph - N/A   Scattered Clouds
12:53 PM 84.0 °F 87.0 °F 68.0 °F 58% 29.73 in 10.0 mi SW 16.1 mph 24.2 mph N/A   Mostly Cloudy
1:53 PM 81.0 °F 84.1 °F 69.1 °F 67% 29.72 in 10.0 mi SW 15.0 mph - 0.00 in Rain Light Rain
2:28 PM 79.0 °F - 66.9 °F 66% 29.75 in 10.0 mi SW 23.0 mph 33.4 mph 0.00 in Thunderstorm Clear
2:43 PM 78.1 °F - 66.9 °F 68% 29.76 in 8.0 mi SW 20.7 mph 26.5 mph 0.00 in Rain Light Rain
2:53 PM 77.0 °F - 66.0 °F 69% 29.72 in 10.0 mi SW 16.1 mph 26.5 mph 0.00 in Rain Light Rain
3:53 PM 80.1 °F 81.7 °F 64.0 °F 58% 29.75 in 10.0 mi SW 13.8 mph 21.9 mph 0.00 in   Mostly Cloudy
4:53 PM 80.1 °F 81.5 °F 63.0 °F 56% 29.76 in 10.0 mi SW 15.0 mph 24.2 mph N/A   Clear
5:53 PM 77.0 °F - 62.1 °F 60% 29.78 in 10.0 mi SW 21.9 mph 31.1 mph N/A   Clear
6:53 PM 75.9 °F - 63.0 °F 64% 29.76 in 10.0 mi SW 13.8 mph - N/A   Scattered Clouds
7:53 PM 73.0 °F - 63.0 °F 71% 29.77 in 10.0 mi SSW 9.2 mph - N/A   Clear
8:53 PM 71.1 °F - 62.1 °F 73% 29.77 in 10.0 mi SW 11.5 mph - N/A   Clear
9:53 PM 69.1 °F - 63.0 °F 81% 29.81 in 10.0 mi SW 6.9 mph - N/A   Clear
10:53 PM 68.0 °F - 62.1 °F 81% 29.83 in 10.0 mi SSW 5.8 mph - N/A   Partly Cloudy
11:53 PM 68.0 °F - 62.1 °F 81% 29.83 in 10.0 mi SW 6.9 mph - N/A   Clear